Terminal Aerodrome Forecast
Issued by NWS

Current Version | Previous Version | Text Only | Print | Product List | Glossary On
Versions: 1 2 3 4 5 6 7 8 9 10 11 12 13 14 15 16 17 18 19 20 21 22 23 24 25 26 27 28 29 30 31 32 33 34 35 36 37 38 39 40 41 42 43 44 45 46 47 48 49 50
000
FTUS41 KCTP 041139
TAFUNV
TAF
KUNV 041139Z 0412/0512 VRB03KT P6SM BKN009
     FM041500 VRB03KT P6SM SCT025 OVC035
     FM050500 05005KT 5SM -SHRA BR OVC030
     FM050900 VRB05KT 4SM -SHRA BR OVC015=

USA.gov is the U.S. government's official web portal to all federal, state and local government web resources and services.